User: anonymous   Login
Location: Cazarilh
(42.9578°N, 0.5819°E)
Time: 08:40:05
(UTC+00:00)
Language:

Geosat - Orbit

View from above orbital plane
View from above orbital plane
View from above satellite
View from above satellite

Ground track
Ground track

The orbit data is extracted from the following two-line orbital elements,

1 15595U 85021A   20049.55932457 -.00000093 +00000-0 +14042-4 0  9994
2 15595 108.0312 320.7178 0001444 262.3606 097.7371 14.38142373830481
Epoch (UTC): 18 February 2020 13:25:25
Eccentricity: 0.0001444
inclination: 108.0312°
perigee height: 763 km
apogee height: 765 km
right ascension of ascending node: 320.7178°
argument of perigee: 262.3606°
revolutions per day: 14.38142373
mean anomaly at epoch: 97.7371°
orbit number at epoch: 83048

The dashed part of the orbit path shows where the satellite is in the earth's shadow,  

DLR